Location: Albany
(35.0000°S, 118.0000°E)
Time: 01:47:53
(UTC-04:00)

Vanguard 1 - Visible Passes

Search period start: 21 July 2018 00:00
Search period end: 31 July 2018 00:00
Orbit: 650 x 3833 km, 34.2° (Epoch: 20 July)

Date Brightness Start Highest point End Pass type
(mag) Time Alt. Az. Time Alt. Az. Time Alt. Az.
21 Jul 13.7 05:39:15 10° W 05:56:12 30° NW 06:08:08 10° N visible
21 Jul 13.9 18:06:51 10° NNE 18:13:25 15° ENE 18:21:47 10° E visible
22 Jul 13.9 06:02:34 10° W 06:16:29 22° NW 06:26:56 10° N visible
22 Jul 13.6 18:24:51 10° N 18:33:32 23° NE 18:45:59 10° E visible
23 Jul 14.1 06:27:26 10° W 06:36:41 15° WNW 06:44:20 10° NNW visible
25 Jul 13.6 17:11:23 10° NE 17:15:10 12° ENE 17:19:38 10° ENE visible
26 Jul 13.3 17:28:39 10° NNE 17:35:14 19° NE 17:44:28 10° E visible
27 Jul 14.4 05:25:35 10° W 05:37:16 17° NW 05:47:13 10° NNW visible
27 Jul 13.0 17:47:39 10° N 17:55:23 28° NE 18:07:33 10° E visible
28 Jul 14.6 05:55:22 10° WNW 05:57:38 10° WNW 05:59:49 10° NW visible
28 Jul 12.8 18:07:18 10° NNW 18:15:43 37° NE 18:29:58 10° ESE visible
29 Jul 12.7 18:27:22 10° NW 18:36:13 47° NE 18:52:04 10° ESE visible
30 Jul 12.9 16:32:56 10° NNE 16:37:29 15° NE 16:43:26 10° E visible
